Location: Colebrook
(42.0017°N, 73.0973°W)
Time: 15:12:24
(UTC-05:00)

Vanguard 2 - Pass Details

Date: 31 October 2021
Orbit: 554 x 2936 km, 32.9° (Epoch: 04 December)

Event Time Altitude Azimuth Distance (km) Brightness Sun altitude
Rises 21:11:14 0° 202° (SSW) 6,551 12.3 -38.2°
Reaches altitude 10° 21:16:40 10° 191° (S) 5,693 11.8 -39.1°
Enters shadow 21:22:57 21° 172° (S) 4,901 11.3 -40.2°
